Home   Weather   Salem   Past weeks

Flag for USA Past Weather in Salem, Oregon, USA — Yesterday and Last 2 Weeks

Now
36 °F

Rain. Fog.


Feels Like: 33 °F
Forecast: 28 / 47 °F
Wind: 3 mph from Northwest

Location: McNary Field

Current Time: Jan 17, 2017 at 3:34:39 pm

Latest Report: Jan 17, 2017 at 3:04 pm


Visibility: 1 mi

Pressure: 29.76 "Hg

Humidity: 92%

Dew Point: 34 °F

Location of SalemLocation

Past Weather in Salem — Graph

°F

Salem Temperature Yesterday

Maximum temperature yesterday: 38 °F (at 2:56 pm)
Minimum temperature yesterday: 23 °F (at 7:56 am)
Average temperature yesterday: 30 °F

High & Low Weather Summary for the Past Weeks

 TemperatureHumidityPressure
High43 °F (Jan 9, 2:13 pm)97% (Jan 8, 2:40 pm)30.44 "Hg (Jan 8, 2:40 pm)
Low15 °F (Jan 6, 6:56 am)33% (Jan 5, 2:56 pm)29.34 "Hg (Jan 10, 9:56 pm)
Average31 °F74%29.98 "Hg
* Reported Jan 2 1:05 pm — Jan 17 1:56 pm, Salem, Weather by CustomWeather, © 2017

Note: Actual official high and low records may vary slightly from our data, if they occured in-between our weather recording intervals... More about our weather records

Advertising

Salem Weather History for the Previous 24 Hours

Scroll right to see more
 ConditionsComfort  
Time TempWeatherWind HumidityBarometerVisibility
1:56 pm
Tue, Jan 17
35 °FLight rain. Fog.3 mph88%29.78 "Hg2 mi
12:56 pm35 °FLight rain. Fog.3 mph85%29.81 "Hg4 mi
11:56 am35 °FLight rain. Mostly cloudy.5 mph82%29.84 "Hg6 mi
10:56 am34 °FLight rain. More clouds than sun.3 mph79%29.89 "Hg6 mi
9:56 am33 °FOvercast.3 mph75%29.88 "Hg9 mi
8:56 am32 °FPassing clouds.5 mph75%29.88 "Hg9 mi
7:56 am31 °FOvercast.No wind79%29.89 "Hg10 mi
6:56 am31 °FMostly cloudy.6 mph76%29.92 "Hg10 mi
5:56 am31 °FOvercast.No wind73%29.95 "Hg10 mi
4:56 am31 °FMostly cloudy.6 mph69%29.97 "Hg10 mi
3:56 am31 °FOvercast.5 mph69%30.00 "Hg10 mi
2:56 am30 °FOvercast.No wind79%30.01 "Hg9 mi
1:56 am30 °FPassing clouds.No wind79%30.03 "Hg9 mi
12:56 am27 °FPassing clouds.3 mph81%30.05 "Hg7 mi
11:56 pm
Mon, Jan 16
27 °FClear.No wind81%30.04 "Hg8 mi
10:56 pm28 °FClear.No wind78%30.05 "Hg8 mi
9:56 pm31 °FMostly cloudy.3 mph76%30.07 "Hg10 mi
8:56 pm30 °FOvercast.No wind79%30.09 "Hg10 mi
7:56 pm30 °FClear.No wind72%30.11 "Hg10 mi
6:56 pm29 °FClear.No wind75%30.10 "Hg10 mi
5:56 pm33 °FPassing clouds.3 mph63%30.11 "Hg10 mi
4:56 pm35 °FSunny.No wind59%30.12 "Hg10 mi
3:56 pm37 °FSunny.3 mph52%30.13 "Hg10 mi
Weather by CustomWeather, © 2017

See weather overviewHow to use our weather pages